Location: ?ejeti?ky
(50.4060°N, 14.9016°E)
Time: 11:57:53
(UTC+00:00)

Cosmos 2322 Rocket - Pass Details

Date: 07 June 2020
Orbit: 833 x 850 km, 71.0° (Epoch: 13 July)

Event Time Altitude Azimuth Distance (km) Brightness Sun altitude
Exits shadow 01:29:27 12° 206° (SSW) 2,309 3.8 -9.6°
Maximum altitude 01:34:43 87° 118° (ESE) 842 2.2 -9.2°
Drops below altitude 10° 01:40:22 10° 30° (NNE) 2,454 6.3 -8.6°
Sets 01:42:48 0° 30° (NNE) 3,392 7.6 -8.4°
